This is the latest recevied weather packets stored in our database for station/object OK1TBF-15. If no packets are shown the sender has not sent any weather packets the latest 10 day(s).
| Time | Temp. | Humidity | Pressure | Rain* | Wind** | Luminosity | Snow |
|---|---|---|---|---|---|---|---|
| 1787468470 | 13.33° C | 80% | 1024.5 hPa | - | - | - | - |
| 1787467870 | 14.44° C | 78% | 1024.5 hPa | - | - | - | - |
| 1787467270 | 13.89° C | 78% | 1024.5 hPa | - | - | - | - |
| 1787466670 | 13.89° C | 79% | 1024.4 hPa | - | - | - | - |
| 1787466070 | 13.89° C | 80% | 1024.3 hPa | - | - | - | - |
| 1787465470 | 13.33° C | 79% | 1024.2 hPa | - | - | - | - |
| 1787464870 | 13.89° C | 77% | 1024.3 hPa | - | - | - | - |
| 1787464269 | 13.33° C | 79% | 1024.2 hPa | - | - | - | - |
| 1787463670 | 12.78° C | 80% | 1024.2 hPa | - | - | - | - |
| 1787463070 | 12.22° C | 81% | 1024 hPa | - | - | - | - |
| 1787462469 | 12.22° C | 82% | 1024 hPa | - | - | - | - |
| 1787461869 | 11.67° C | 83% | 1023.9 hPa | - | - | - | - |
| 1787461269 | 11.11° C | 84% | 1023.8 hPa | - | - | - | - |
| 1787460669 | 10.56° C | 85% | 1023.8 hPa | - | - | - | - |
| 1787460070 | 10.56° C | 85% | 1023.7 hPa | - | - | - | - |
| 1787459470 | 10.56° C | 85% | 1023.6 hPa | - | - | - | - |
| 1787458870 | 10.56° C | 84% | 1023.5 hPa | - | - | - | - |
| 1787458270 | 10.56° C | 84% | 1023.3 hPa | - | - | - | - |
| 1787457670 | 10.56° C | 84% | 1023.3 hPa | - | - | - | - |
| 1787457069 | 10.56° C | 84% | 1023.3 hPa | - | - | - | - |
| 1787456469 | 10.56° C | 84% | 1023.3 hPa | - | - | - | - |
| 1787455870 | 10.56° C | 84% | 1023.3 hPa | - | - | - | - |
| 1787455270 | 10.56° C | 83% | 1023.2 hPa | - | - | - | - |
| 1787454670 | 10.56° C | 84% | 1023.1 hPa | - | - | - | - |
| 1787454069 | 10.56° C | 84% | 1023.1 hPa | - | - | - | - |
* Rain since midnight (hover to see other rain measurements)
** Current wind speed in m/s (hover to see current wind gust speed)